London-Corbin, KY

2:31 AM EDT on June 29, 2017 (GMT -0400)
London-Corbin / McKee

Weather History for KLOZ - June, 2013

Change the Weather History Date:

Sunday, June 16, 2013

  Actual Average Record
Temperature  
Mean Temperature 74 °F 73 °F  
Max Temperature 83 °F 84 °F 93 °F (1957)
Min Temperature 64 °F 63 °F 49 °F (1974)
Degree Days  
Heating Degree Days 0 0  
Month to date heating degree days 0 7  
Since 1 June heating degree days 0 7  
Since 1 July heating degree days 4531 4203  
Cooling Degree Days 9 8  
Month to date cooling degree days 106 106  
Year to date cooling degree days 206 220  
Since 1 June cooling degree days 106 106  
Growing Degree Days 23 (Base 50)    
Moisture  
Dew Point 65 °F    
Average Humidity 78    
Maximum Humidity 97    
Minimum Humidity 58    
Precipitation  
Precipitation 0.06 in 0.15 in 1.00 in (1991)
Month to date precipitation 3.68 2.44  
Year to date precipitation 26.69  
Sea Level Pressure  
Sea Level Pressure 30.04 in    
Wind  
Wind Speed 5 mph (SW)    
Max Wind Speed 15 mph    
Max Gust Speed 20 mph    
Visibility 9 miles    
Events Rain , Thunderstorm    
T = Trace of Precipitation, MM = Missing Value Source: NWS Daily Summary

Daily Weather History Graph

Daily Weather History Graph

Search for Another Location

Airport or City:

Trip Planner

Search our weather history database for the weather conditions in past years. The results will help you decide how hot, cold, wet, or windy it might be!

Date:

Astronomy

Jun. 16, 2013 Rise Set
Actual Time 6:15 AM EDT 8:58 PM EDT
Civil Twilight 5:45 AM EDT 9:29 PM EDT
Nautical Twilight 5:06 AM EDT 10:07 PM EDT
Astronomical Twilight 4:23 AM EDT 10:51 PM EDT
Moon 1:41 PM EDT (6/16) 1:11 AM EDT (6/16)
Length of Visible Light 15h 44m
Length of Day
14h 42m
Waxing Crescent, 49% of the Moon is Illuminated
Jun 16
Waxing Crescent
Jun 16
First Quarter
Jun 23
Full
Jun 30
Last Quarter
Jul 8
New

Hourly Weather History & Observations

Time (EDT) Temp. Heat Index Dew Point Humidity Pressure Visibility Wind Dir Wind Speed Gust Speed Precip Events Conditions
12:53 AM 68.0 °F - 64.0 °F 87% 30.04 in 8.0 mi Calm Calm - N/A   Clear
1:53 AM 66.0 °F - 64.0 °F 93% 30.04 in 6.0 mi Calm Calm - N/A   Clear
2:53 AM 68.0 °F - 62.1 °F 81% 30.04 in 10.0 mi SW 4.6 mph - N/A   Clear
3:53 AM 64.9 °F - 62.1 °F 90% 30.04 in 10.0 mi Calm Calm - N/A   Clear
4:53 AM 64.0 °F - 62.1 °F 93% 30.04 in 9.0 mi Calm Calm - N/A   Clear
5:53 AM 64.9 °F - 62.1 °F 90% 30.05 in 10.0 mi Calm Calm - N/A   Mostly Cloudy
6:53 AM 68.0 °F - 62.1 °F 81% 30.05 in 10.0 mi South 3.5 mph - N/A   Clear
7:53 AM 69.1 °F - 62.1 °F 78% 30.07 in 10.0 mi South 3.5 mph - N/A   Mostly Cloudy
8:53 AM 72.0 °F - 63.0 °F 73% 30.08 in 10.0 mi SSW 6.9 mph - N/A   Scattered Clouds
9:53 AM 73.9 °F - 63.0 °F 68% 30.09 in 10.0 mi WSW 5.8 mph - N/A   Scattered Clouds
10:53 AM 78.1 °F - 64.0 °F 62% 30.08 in 10.0 mi West 10.4 mph - N/A   Clear
11:53 AM 79.0 °F - 64.0 °F 60% 30.07 in 10.0 mi West 11.5 mph - N/A   Partly Cloudy
12:53 PM 81.0 °F 82.5 °F 64.0 °F 56% 30.05 in 10.0 mi WSW 10.4 mph - N/A   Scattered Clouds
1:53 PM 80.1 °F 81.7 °F 64.0 °F 58% 30.04 in 10.0 mi SW 8.1 mph - N/A   Mostly Cloudy
2:53 PM 81.0 °F 83.0 °F 66.0 °F 60% 30.02 in 10.0 mi WSW 10.4 mph - N/A   Overcast
3:53 PM 82.0 °F 84.1 °F 66.0 °F 58% 30.01 in 10.0 mi West 9.2 mph - N/A   Scattered Clouds
4:53 PM 82.0 °F 84.5 °F 66.9 °F 60% 30.00 in 10.0 mi West 8.1 mph - N/A   Scattered Clouds
5:53 PM 80.1 °F 82.3 °F 66.9 °F 64% 29.99 in 10.0 mi West 4.6 mph - 0.00 in   Scattered Clouds
6:53 PM 79.0 °F - 69.1 °F 72% 29.99 in 10.0 mi South 3.5 mph - N/A   Partly Cloudy
7:53 PM 77.0 °F - 69.1 °F 76% 30.00 in 10.0 mi Variable 4.6 mph - N/A   Scattered Clouds
8:53 PM 75.0 °F - 66.9 °F 76% 30.01 in 10.0 mi Calm Calm - N/A   Scattered Clouds
9:53 PM 73.0 °F - 66.9 °F 81% 30.01 in 10.0 mi Calm Calm - 0.00 in Rain Light Rain
10:02 PM 73.4 °F - 68.0 °F 83% 30.04 in 6.0 mi Calm Calm - 0.02 in Rain , Thunderstorm Light Rain
10:17 PM 71.6 °F - 69.8 °F 94% 30.04 in 6.0 mi Calm Calm - 0.04 in Rain Light Rain
10:53 PM 71.1 °F - 69.1 °F 93% 30.01 in 8.0 mi Calm Calm - 0.06 in   Clear
11:53 PM 69.1 °F - 68.0 °F 96% 30.02 in 5.0 mi South 3.5 mph - N/A   Clear